Lap times 1st practice 2013 Abu Dhabi F1 Grand Prix

2013 Abu Dhabi Grand Prix

Event: Abu Dhabi Grand Prix
Track: Yas Marina Circuit

Weather: Dry
Track temperature: 45°C
Air temperature: 34°C
Wind Speed: 1.5 mps
Wind direction: South
Air Pressure: 1011.6 mBar
Humidity: 38%

FP1 Lap Times 2013 Abu Dhabi F1 GP

PosNoDriverTeamLap Time1st GapLaps
18Romain GrosjeanLotus F11:44,24121
210Lewis HamiltonMercedes1:44,4330,19223
31Sebastian VettelRed Bull1:44,4990,25818
42Mark WebberRed Bull1:44,7120,47120
59Nico RosbergMercedes1:44,7410,50024
67Kimi RäikkönenLotus F11:44,9290,68823
714Paul di RestaForce India1:45,0400,79920
85Jenson ButtonMcLaren1:45,0990,85820
916Pastor MaldonadoWilliams1:45,1500,90924
106Sergio PérezMcLaren1:45,3311,09020
1111Nico HülkenbergSauber1:45,3781,13723
123Fernando AlonsoFerrari1:45,4401,19918
1317Valtteri BottasWilliams1:45,8231,58222
1415Adrian SutilForce India1:45,9241,68320
1512Esteban GutierrezSauber1:46,0681,82718
1618Jean-Eric VergneToro Rosso1:46,1141,87322
174Felipe MassaFerrari1:46,1241,88318
1819Daniel RicciardoToro Rosso1:46,1261,88521
1920Charles PicCaterham1:47,6003,35922
2021Giedo van der GardeCaterham1:47,6703,42922
2122Jules BianchiManor1:47,7233,48223
2223Rodolfo GonzalezManor1:49,5655,32422

Highest speed: 319 km/h by Sergio Pérez, McLaren MP4-28


Check out more items on this website about:

What's your F1 fan opinion?

Your email address will not be published. Required fields are marked *

Please follow our commenting guidelines.